When you browse on this site, cookies collect data to enhance your experience and personalize the content and advertising you see.
Visit our Privacy Policy to learn more. By continuing to use the site, you agree to this use of cookies and data.
  • In Schweiz
  • Länderverzeichnis
  • Für 7 Tage
  • Wassertemperatur
  • Wetterkarte
  • Widgets
  • user-avatar
    Anmelden

    Stündliche Wetter Chelmsford

    Heute, 30 Mai, Samstag

    Zeit Temperatur Niederschläge Wind Luftdruck Luftfeuchtigkeit
    00:00 +8°C° 0 mm 3 m/S 766 mmHg 91%
    01:00 +8°C° 0 mm 3 m/S 765 mmHg 92%
    02:00 +8°C° 0 mm 3 m/S 765 mmHg 94%
    03:00 +8°C° 0 mm 3 m/S 765 mmHg 96%
    04:00 +10°C° 0 mm 3 m/S 765 mmHg 93%
    05:00 +11°C° 0 mm 3 m/S 765 mmHg 91%
    06:00 +13°C° 0 mm 4 m/S 765 mmHg 88%
    07:00 +14°C° 0 mm 4 m/S 765 mmHg 81%
    08:00 +17°C° 0 mm 4 m/S 765 mmHg 73%
    09:00 +17°C° 0 mm 5 m/S 765 mmHg 66%
    10:00 +19°C° 0 mm 5 m/S 765 mmHg 64%
    11:00 +19°C° 0 mm 5 m/S 765 mmHg 63%
    12:00 +20°C° 0 mm 5 m/S 765 mmHg 61%
    13:00 +20°C° 0 mm 5 m/S 764 mmHg 61%
    14:00 +20°C° 0 mm 5 m/S 764 mmHg 60%
    15:00 +20°C° 0 mm 5 m/S 764 mmHg 60%
    16:00 +19°C° 0 mm 5 m/S 764 mmHg 63%
    17:00 +17°C° 0 mm 5 m/S 764 mmHg 66%
    18:00 +17°C° 0 mm 5 m/S 764 mmHg 69%
    19:00 +15°C° 0 mm 5 m/S 764 mmHg 75%
    20:00 +13°C° 0 mm 5 m/S 764 mmHg 81%
    21:00 +12°C° 0 mm 4 m/S 764 mmHg 87%
    22:00 +11°C° 0 mm 4 m/S 764 mmHg 89%
    23:00 +11°C° 0 mm 4 m/S 765 mmHg 90%

    Morgen, 31 Mai, Sonntag

    Zeit Temperatur Niederschläge Wind Luftdruck Luftfeuchtigkeit
    00:00 +11°C° 0 mm 4 m/S 765 mmHg 92%
    01:00 +11°C° 0 mm 4 m/S 765 mmHg 90%
    02:00 +11°C° 0 mm 4 m/S 765 mmHg 89%
    03:00 +11°C° 0 mm 3 m/S 764 mmHg 88%
    04:00 +12°C° 0 mm 4 m/S 765 mmHg 85%
    05:00 +13°C° 0 mm 4 m/S 765 mmHg 82%
    06:00 +14°C° 0 mm 4 m/S 765 mmHg 79%
    07:00 +15°C° 0 mm 4 m/S 765 mmHg 73%
    08:00 +16°C° 0 mm 5 m/S 765 mmHg 67%
    09:00 +19°C° 0 mm 5 m/S 765 mmHg 61%
    10:00 +19°C° 0 mm 6 m/S 765 mmHg 60%
    11:00 +19°C° 0 mm 6 m/S 765 mmHg 59%
    12:00 +20°C° 0 mm 6 m/S 765 mmHg 58%
    13:00 +20°C° 0 mm 6 m/S 765 mmHg 58%
    14:00 +19°C° 0 mm 6 m/S 765 mmHg 57%
    15:00 +19°C° 0 mm 6 m/S 765 mmHg 57%
    16:00 +17°C° 0 mm 6 m/S 765 mmHg 60%
    17:00 +17°C° 0 mm 6 m/S 765 mmHg 63%
    18:00 +16°C° 0 mm 6 m/S 765 mmHg 66%
    19:00 +14°C° 0 mm 6 m/S 765 mmHg 72%
    20:00 +13°C° 0 mm 5 m/S 765 mmHg 78%
    21:00 +10°C° 0 mm 5 m/S 765 mmHg 84%
    22:00 +10°C° 0 mm 5 m/S 765 mmHg 86%
    23:00 +10°C° 0 mm 4 m/S 765 mmHg 88%

    übermorgen, 1 Juni, Montag

    Zeit Temperatur Niederschläge Wind Luftdruck Luftfeuchtigkeit
    00:00 +10°C° 0 mm 4 m/S 765 mmHg 91%
    01:00 +10°C° 0 mm 4 m/S 765 mmHg 92%
    02:00 +10°C° 0 mm 4 m/S 765 mmHg 94%
    03:00 +10°C° 0 mm 4 m/S 765 mmHg 95%
    04:00 +11°C° 0 mm 4 m/S 765 mmHg 92%
    05:00 +12°C° 0 mm 4 m/S 765 mmHg 89%
    06:00 +13°C° 0 mm 5 m/S 765 mmHg 86%
    07:00 +15°C° 0 mm 5 m/S 765 mmHg 80%
    08:00 +16°C° 0 mm 5 m/S 765 mmHg 74%
    09:00 +17°C° 0 mm 6 m/S 765 mmHg 68%
    10:00 +19°C° 0 mm 6 m/S 765 mmHg 65%
    11:00 +19°C° 0 mm 6 m/S 765 mmHg 63%
    12:00 +19°C° 0 mm 6 m/S 765 mmHg 60%
    13:00 +19°C° 0 mm 6 m/S 764 mmHg 59%
    14:00 +19°C° 0 mm 6 m/S 764 mmHg 58%
    15:00 +19°C° 0 mm 5 m/S 764 mmHg 57%
    16:00 +17°C° 0 mm 5 m/S 764 mmHg 61%
    17:00 +17°C° 0 mm 5 m/S 764 mmHg 64%
    18:00 +16°C° 0 mm 5 m/S 763 mmHg 68%
    19:00 +14°C° 0 mm 4 m/S 764 mmHg 76%
    20:00 +12°C° 0 mm 4 m/S 764 mmHg 83%
    21:00 +11°C° 0 mm 4 m/S 764 mmHg 91%
    22:00 +10°C° 0 mm 3 m/S 764 mmHg 92%
    23:00 +10°C° 0 mm 3 m/S 764 mmHg 93%

    2 Juni, Dienstag

    Zeit Temperatur Niederschläge Wind Luftdruck Luftfeuchtigkeit
    00:00 +9°C° 0 mm 3 m/S 763 mmHg 95%
    01:00 +9°C° 0 mm 3 m/S 763 mmHg 95%
    02:00 +9°C° 0 mm 3 m/S 763 mmHg 95%
    03:00 +9°C° 0 mm 3 m/S 763 mmHg 95%
    04:00 +11°C° 0 mm 3 m/S 763 mmHg 93%
    05:00 +12°C° 0 mm 3 m/S 763 mmHg 91%
    06:00 +13°C° 0 mm 3 m/S 763 mmHg 90%
    07:00 +16°C° 0 mm 3 m/S 762 mmHg 83%
    08:00 +18°C° 0 mm 3 m/S 762 mmHg 75%
    09:00 +20°C° 0 mm 2 m/S 762 mmHg 68%
    10:00 +21°C° 0 mm 2 m/S 762 mmHg 64%
    11:00 +23°C° 0 mm 2 m/S 762 mmHg 60%
    12:00 +23°C° 0 mm 2 m/S 761 mmHg 56%
    13:00 +23°C° 0 mm 2 m/S 761 mmHg 58%
    14:00 +23°C° 0 mm 2 m/S 760 mmHg 60%
    15:00 +23°C° 0 mm 2 m/S 760 mmHg 61%
    16:00 +21°C° 0 mm 2 m/S 759 mmHg 66%
    17:00 +21°C° 0 mm 2 m/S 759 mmHg 70%
    18:00 +20°C° 0 mm 2 m/S 758 mmHg 74%
    19:00 +18°C° 0 mm 2 m/S 758 mmHg 79%
    20:00 +17°C° 0 mm 2 m/S 758 mmHg 83%
    21:00 +15°C° 0 mm 2 m/S 758 mmHg 88%
    22:00 +14°C° 0 mm 2 m/S 757 mmHg 88%
    23:00 +14°C° 0 mm 2 m/S 757 mmHg 89%

    3 Juni, Mittwoch

    Zeit Temperatur Niederschläge Wind Luftdruck Luftfeuchtigkeit
    00:00 +13°C° 0 mm 1 m/S 756 mmHg 89%
    01:00 +13°C° 0 mm 2 m/S 756 mmHg 89%
    02:00 +13°C° 0 mm 2 m/S 756 mmHg 88%
    03:00 +13°C° 0 mm 2 m/S 755 mmHg 88%
    04:00 +13°C° 0.5 mm 2 m/S 755 mmHg 88%
    05:00 +13°C° 0.5 mm 2 m/S 754 mmHg 88%
    06:00 +13°C° 0.5 mm 3 m/S 754 mmHg 88%
    07:00 +13°C° 1 mm 3 m/S 754 mmHg 88%
    08:00 +14°C° 1 mm 3 m/S 754 mmHg 87%
    09:00 +14°C° 1 mm 3 m/S 754 mmHg 86%
    10:00 +14°C° 0.9 mm 3 m/S 754 mmHg 86%
    11:00 +14°C° 0.9 mm 4 m/S 753 mmHg 85%
    12:00 +14°C° 0.9 mm 4 m/S 753 mmHg 85%
    13:00 +15°C° 0.2 mm 4 m/S 753 mmHg 83%
    14:00 +15°C° 0.2 mm 5 m/S 753 mmHg 82%
    15:00 +15°C° 0.2 mm 5 m/S 752 mmHg 80%
    16:00 +14°C° 0 mm 6 m/S 752 mmHg 79%
    17:00 +14°C° 0 mm 6 m/S 752 mmHg 77%
    18:00 +14°C° 0 mm 6 m/S 752 mmHg 76%
    19:00 +13°C° 0 mm 6 m/S 752 mmHg 77%
    20:00 +11°C° 0 mm 6 m/S 752 mmHg 79%
    21:00 +11°C° 0 mm 7 m/S 752 mmHg 80%
    22:00 +11°C° 0 mm 7 m/S 751 mmHg 80%
    23:00 +11°C° 0 mm 7 m/S 751 mmHg 81%

    4 Juni, Donnerstag

    Zeit Temperatur Niederschläge Wind Luftdruck Luftfeuchtigkeit
    00:00 +11°C° 0 mm 7 m/S 751 mmHg 81%
    01:00 +11°C° 0 mm 7 m/S 750 mmHg 82%
    02:00 +11°C° 0 mm 7 m/S 749 mmHg 83%
    03:00 +11°C° 0 mm 7 m/S 749 mmHg 84%
    04:00 +11°C° 0 mm 7 m/S 749 mmHg 85%
    05:00 +11°C° 0 mm 7 m/S 748 mmHg 86%
    06:00 +12°C° 0 mm 7 m/S 748 mmHg 87%
    07:00 +12°C° 0.5 mm 7 m/S 748 mmHg 89%
    08:00 +12°C° 0.5 mm 7 m/S 747 mmHg 91%
    09:00 +12°C° 0.5 mm 7 m/S 747 mmHg 92%
    10:00 +12°C° 0.6 mm 7 m/S 747 mmHg 93%
    11:00 +13°C° 0.6 mm 6 m/S 747 mmHg 93%
    12:00 +14°C° 0.6 mm 6 m/S 747 mmHg 93%
    13:00 +14°C° 0.3 mm 6 m/S 747 mmHg 93%
    14:00 +14°C° 0.3 mm 6 m/S 746 mmHg 93%
    15:00 +14°C° 0.3 mm 6 m/S 746 mmHg 92%
    16:00 +14°C° 0.1 mm 5 m/S 746 mmHg 92%
    17:00 +14°C° 0.1 mm 5 m/S 746 mmHg 93%
    18:00 +14°C° 0.1 mm 5 m/S 746 mmHg 93%
    19:00 +13°C° 0 mm 5 m/S 746 mmHg 93%
    20:00 +13°C° 0 mm 4 m/S 746 mmHg 93%
    21:00 +12°C° 0 mm 4 m/S 746 mmHg 93%
    22:00 +12°C° 0.1 mm 4 m/S 745 mmHg 93%
    23:00 +11°C° 0.1 mm 4 m/S 745 mmHg 93%
    Mehr zeigen